Kuantan, Malaysia

1:56 PM +08 on October 21, 2019 (GMT +0800)
Kuantan

Weather History for WMKD - August, 2019

Change the Weather History Date:

Friday, August 16, 2019

  Actual Average Record
Temperature  
Mean Temperature 84 °F -  
Max Temperature 92 °F 90 °F - ()
Min Temperature 75 °F 72 °F - ()
Cooling Degree Days 18    
Growing Degree Days 34 (Base 50)    
Moisture  
Dew Point 75 °F    
Average Humidity 84    
Maximum Humidity 94    
Minimum Humidity 60    
Precipitation  
Precipitation 1.46 in 0.27 in - ()
Sea Level Pressure  
Sea Level Pressure 29.84 in    
Wind  
Wind Speed 2 mph ()    
Max Wind Speed 13 mph    
Max Gust Speed 23 mph    
Visibility 5.7 miles    
Events Rain , Thunderstorm    
T = Trace of Precipitation, MM = Missing Value Source: Averaged Metar Reports

Daily Weather History Graph

Daily Weather History Graph

Search for Another Location

Airport or City:

Astronomy

Aug. 16, 2019 Rise Set
Actual Time 7:04 AM +08 7:18 PM +08
Civil Twilight 6:43 AM +08 7:40 PM +08
Nautical Twilight 6:18 AM +08 8:04 PM +08
Astronomical Twilight 5:53 AM +08 8:29 PM +08
Moon 8:02 PM +08 (8/16) 7:31 AM +08 (8/16)
Length of Visible Light 12h 56m
Length of Day
12h 14m
Full, 100% of the Moon is Illuminated
Aug 16
Full
Aug 23
Last Quarter
Aug 30
New
Sep 6
First Quarter
Sep 14
Full

Hourly Weather History & Observations

Time (+08) Temp. Heat Index Dew Point Humidity Pressure Visibility Wind Dir Wind Speed Gust Speed Precip Events Conditions
12:00 AM 77.0 °F - 75.2 °F 94% 29.86 in 6.2 mi Calm Calm - N/A   Mostly Cloudy
1:00 AM 77.0 °F - 75.2 °F 94% 29.86 in 6.2 mi Calm Calm - N/A   Mostly Cloudy
2:00 AM 76 °F - 74 °F 91% 29.84 in 7 mi Calm Calm - -   Haze
2:00 AM 75.2 °F - 73.4 °F 94% 29.83 in 6.2 mi Calm Calm - N/A   Mostly Cloudy
3:00 AM 75.2 °F - 73.4 °F 94% 29.83 in 6.2 mi Calm Calm - N/A   Mostly Cloudy
4:00 AM 75.2 °F - 73.4 °F 94% 29.83 in 6.2 mi Calm Calm - N/A   Mostly Cloudy
5:00 AM 76 °F - 74 °F 91% 29.83 in 7 mi Calm Calm - -   Haze
5:00 AM 77.0 °F - 73.4 °F 89% 29.83 in 6.2 mi Calm Calm - N/A   Mostly Cloudy
6:00 AM 77.0 °F - 73.4 °F 89% 29.83 in 6.2 mi Variable 2.3 mph - N/A   Mostly Cloudy
7:00 AM 77.0 °F - 73.4 °F 89% 29.83 in 6.2 mi Calm Calm - N/A   Mostly Cloudy
8:00 AM 78 °F - 75 °F 86% 29.87 in 7 mi Calm Calm - -   Haze
8:00 AM 78.8 °F - 75.2 °F 89% 29.86 in 6.2 mi Calm Calm - N/A   Mostly Cloudy
9:00 AM 82.4 °F 89.5 °F 75.2 °F 79% 29.89 in 6.2 mi Variable 3.5 mph - N/A   Mostly Cloudy
10:00 AM 86.0 °F 95.1 °F 75.2 °F 70% 29.89 in 6.2 mi Variable 4.6 mph - N/A   Mostly Cloudy
11:00 AM 87 °F - 76 °F 63% 29.89 in 7 mi SSW 5.8 mph - -   Haze
11:00 AM 86.0 °F 96.9 °F 77.0 °F 74% 29.89 in 6.2 mi Variable 5.8 mph - N/A   Mostly Cloudy
12:00 PM 89.6 °F 104.7 °F 78.8 °F 70% 29.86 in 6.2 mi Variable 5.8 mph - N/A   Mostly Cloudy
1:00 PM 89.6 °F 102.2 °F 77.0 °F 66% 29.86 in 6.2 mi Variable 9.2 mph - N/A   Mostly Cloudy
2:00 PM 91 °F - 79 °F 60% 29.83 in 6 mi South 5.8 mph - -   Haze
2:00 PM 91.4 °F 107.2 °F 78.8 °F 66% 29.83 in 5.6 mi Variable 5.8 mph - N/A   Mostly Cloudy
3:00 PM 91.4 °F 107.2 °F 78.8 °F 66% 29.80 in 6.2 mi Variable 3.5 mph - N/A   Mostly Cloudy
4:00 PM 82.4 °F 90.9 °F 77.0 °F 84% 29.80 in 0.6 mi Variable 3.5 mph 23.0 mph N/A Rain Rain Showers
5:00 PM 76 °F - 74 °F 92% 29.81 in 1 mi West 12.7 mph - - Rain , Thunderstorm Thunderstorms and Rain
5:00 PM 77.0 °F - 73.4 °F 89% 29.80 in 0.6 mi West 12.7 mph - N/A Rain , Thunderstorm Thunderstorms and Rain
6:00 PM 75.2 °F - 73.4 °F 94% 29.80 in 5.6 mi Calm Calm - N/A Rain , Thunderstorm Light Thunderstorms and Rain
8:00 PM 77 °F - 75 °F 91% 29.83 in 6 mi Calm Calm - - Rain Light Rain
8:00 PM 77.0 °F - 75.2 °F 94% 29.83 in 5.6 mi Calm Calm - N/A Rain Light Rain
9:00 PM 77.0 °F - 73.4 °F 89% 29.86 in 6.2 mi Calm Calm - N/A   Mostly Cloudy
10:00 PM 77.0 °F - 73.4 °F 89% 29.86 in 6.2 mi Variable 2.3 mph - N/A   Mostly Cloudy
11:00 PM 76 °F - 74 °F 92% 29.88 in 7 mi Calm Calm - -   Haze
11:00 PM 75.2 °F - 73.4 °F 94% 29.86 in 6.2 mi Calm Calm - N/A   Mostly Cloudy